Terminal Aerodrome Forecast
Issued by NWS Atlanta, GA

Home | Current Version | Previous Version | Text Only | Print | Product List | Glossary On
Versions: 1 2 3 4 5 6 7 8 9 10 11 12 13 14 15 16 17 18 19 20 21 22 23 24 25 26 27 28 29 30 31 32 33
000
FTUS42 KFFC 230500
TAFAHN
TAF
KAHN 230530Z 2306/2406 31003KT P6SM FEW250
     FM231500 32005KT P6SM FEW035
     FM231800 33007KT P6SM VCSH SCT045 PROB30 2319/2323 -TSRA
      BKN035CB
     FM240300 05005KT P6SM VCSH SCT035 SCT070=

USA.gov is the U.S. government's official web portal to all federal, state and local government web resources and services.